FALCON 9 R/B, 58996

Orbit data source: Space-Track

FALCON 9 R/B, 58996 is space debris in HEO originally from a launch on Tue, 20 Feb 2024 UTC launched from the Air Force Eastern Test Range (AFETR). Debris objects in space refer to the collection of defunct objects orbiting the Earth. Examples of debris include non-operational satellites, rocket bodies, and fragments generated from explosions, collisions, or faulty payload assembly.

Loading next visibility...
Identifier
58996, 2024-035B
Orbit
HEO
Country
Flag of USUS
Related business
Manufacturer
SpaceX
Mission
Spacecraft
Bus & Motor
F9ST2, Unknown motor
Mass
~4,000 kg wet, ~4,000 kg dry
Launch date (UTC)
2024-02-20 (2 years ago)
Launch vehicle
Unknown
Launch site
Air Force Eastern Test Range (AFETR)
Object type
Payload
Rocket body
Debris
Shape & HBR
Cyl, 7.8 m
Radar Cross Section
39.980 m², Large (>1 m²)

Expand to show TLE details & history
Last TLE update: 1 day ago

TLE from 1 day ago
0 FALCON 9 R/B
1 58996U 24035B   25347.77686918  .00000923  00000-0  25257-2 0  9991
2 58996  18.7065 139.4091 8014218  84.0457 352.0980  1.39656422  9212
Epoch: 2025-12-13T18:38Z
TLE epoch observation values (Epoch: 2025-12-13T18:38:41.497Z)
Latitude
0.00009°
Longitude
136.77032°
Altitude
4,805.086 km
Speed
7.713 km/s
True Right ascension
09h 16m 34s
True Declination
0° 00' 00"
Sunlit
Object was in daylight at epoch
Visualization orbit readout
Latitude
Unknown
Longitude
Unknown
Altitude
Unknown
Speed
Unknown
Apparent Right ascension
Unknown
Apparent Declination
Unknown
Sunlit
N/A
Visualization observer readout
Local Sidereal Time
00:38:44
Azimuth
Unknown
Elevation
Unknown
Doppler factor
Unknown
Orbital elements
Apogee altitude
54,534.826 km
Perigee altitude
336.552 km
Semi-major axis
33,813.826 km
Eccentricity
0.80142
Inclination
18.7065°
RAAN
139.4091°
Arg. of periapsis
84.0457°
True anomaly
277.02288°
Mean anomaly
352.098°
Eccentric anomaly
327.27298°
Mean motion
0.34906 °/min
Orbital period
1,031.34 mins
BSTAR
0.0025257
Loading maneuver chart data...
Computing Atmospheric mass density...
Loading historical data...
Loading historical data...
Loading historical data...
Loading historical data...
Loading historical data...
Loading historical data...
Loading historical data...
Other satellites on launch #35 in the year 2024 (2024-02-20 UTC)

Documentation

Showing up to 5 results
|